Regional Weather Roundup
Issued by NWS

Home | Current Version | Previous Version | Text Only | Print | Product List | Glossary On
Versions: 1 2 3 4 5 6 7 8 9 10 11 12 13 14 15 16 17 18 19 20 21 22 23 24 25 26 27 28 29 30 31 32 33 34 35 36 37 38 39 40 41 42 43 44 45 46 47 48 49 50
000
ASUS43 KTOP 290508
RWRKS

WEATHER ROUNDUP FOR KANSAS
NATIONAL WEATHER SERVICE GOODLAND KS
1100 PM CST FRI NOV 28 2014

NOTE:  "FAIR" INDICATES FEW OR NO CLOUDS BELOW 12,000 FEET WITH NO
SIGNIFICANT WEATHER AND/OR OBSTRUCTIONS TO VISIBILITY.

KSZ001>006-013>018-027>032-041>047-290600-
NORTHWEST KANSAS

CITY           SKY/WX    TMP DP  RH WIND       PRES   REMARKS
GOODLAND       CLOUDY    49  15  25 SW8       29.72F
HAYS           MOCLDY    46  25  42 SW5       29.70F
HILL CITY      MOCLDY    38  19  46 NW3       29.69F
RUSSELL        FAIR      42  30  62 S9        29.68F
$$

KSZ061>065-074>080-084>089-290600-
SOUTHWEST KANSAS

CITY           SKY/WX    TMP DP  RH WIND       PRES   REMARKS
DODGE CITY     CLOUDY    48  29  47 S13       29.71F
ELKHART          N/A     55  13  19 W8          N/A
GARDEN CITY    CLOUDY    45  27  49 S7        29.71F
GREAT BEND     CLOUDY    43  28  56 S5        29.71F
LIBERAL        CLOUDY    43  18  36 SW10      29.74F
PRATT          MOCLDY    43  34  70 S7        29.72F
$$

KSZ066>073-081>083-090>101-290600-
SOUTHEAST KANSAS

CITY           SKY/WX    TMP DP  RH WIND       PRES   REMARKS
CHANUTE        CLOUDY    54  44  69 S14       29.81F
COFFEYVILLE    CLOUDY    55  46  71 S12       29.83F
HUTCHINSON     CLOUDY    46  37  71 SE9       29.74F
MEDICINE LODGE   N/A     46  38  73 E5        29.72F
NEWTON         CLOUDY    48  36  61 S12       29.78F
PARSONS        CLOUDY    55  46  71 S8        29.83F
WICHITA INTL   CLOUDY    50  40  68 S7        29.75F
WICHITA JABRA  CLOUDY    52  41  66 S9        29.76F
WICHITA MCCONL CLOUDY    51  42  70 S12       29.76F
WINFIELD       CLOUDY    53  42  66 S13       29.77F
$$

KSZ007>012-019>026-033>040-048>060-102>105-290600-
NORTHEAST KANSAS

CITY           SKY/WX    TMP DP  RH WIND       PRES   REMARKS
CONCORDIA      CLOUDY    50  35  56 SW14      29.67S
EMPORIA        CLOUDY    50  38  63 S15       29.76F
LAWRENCE       CLOUDY    53  37  54 SW10      29.75F
MANHATTAN      CLOUDY    52  38  58 SW10      29.71F
MARYSVILLE     CLOUDY    52  36  54 SW9       29.68R
OLATHE IND     CLOUDY    53  39  59 S15       29.75F
OLATHE EXE     CLOUDY    51  39  63 SW14      29.75F
SALINA         CLOUDY    49  36  61 S14       29.71F
TOPEKA BILLARD CLOUDY    56  38  50 SW9       29.73F
TOPEKA FORBES  CLOUDY    52  37  56 S15       29.72F
$$



USA.gov is the U.S. government's official web portal to all federal, state and local government web resources and services.